Date String (YYYY-MM-DD hh:mm:ss) UTC,Instrument flags,Ambient pressure (hPa),Sample flow (lpm),Bypass flow (lpm),Sample temperature (°C),Ambient temperature (°C),ASC tube jacket temperature (°C),LED temperature (°C),Box temperature (°C),Sample RH (%),Span deviation,Mass concentration (μg/m³),Mass concentration (μg/m³),Mass concentration (μg/m³)
DateTimeUTC,F1_M11,P_M11,Q1_M11,Q2_M11,T1_M11,T2_M11,T3_M11,T4_M11,T5_M11,U1_M11,ZSPAN_M11,X0_M11,X2_M11,X1_M11
2022-03-30 06:00:00,,0818.4,4.99,0.00,25.1,24.1,00.0,34.1,26.8,14.5,0000.0,0001.74,0001.35,0001.20
2022-03-30 06:01:00,,0818.4,4.99,0.00,25.0,24.1,00.0,34.1,26.8,14.5,0000.0,0001.78,0001.39,0001.21
2022-03-30 06:02:00,,0818.4,5.01,0.00,25.0,24.0,00.0,34.1,26.8,14.5,0000.0,0001.78,0001.41,0001.22
2022-03-30 06:03:00,,0818.4,5.00,0.00,25.0,24.0,00.0,34.1,26.7,14.5,0000.0,0001.77,0001.41,0001.23
2022-03-30 06:04:00,,0818.4,4.99,0.00,25.0,24.0,00.0,34.1,26.7,14.5,0000.0,0001.84,0001.44,0001.24
2022-03-30 06:05:00,,0818.4,5.00,0.00,25.0,24.0,00.0,34.1,26.7,14.5,0000.0,0001.86,0001.45,0001.26
2022-03-30 06:06:00,,0818.4,5.01,0.00,25.0,24.0,00.0,34.0,26.7,14.6,0000.0,0002.14,0001.44,0001.28
2022-03-30 06:07:00,,0818.4,5.00,0.00,24.9,24.0,00.0,34.0,26.7,14.5,0000.0,0002.67,0001.45,0001.29
2022-03-30 06:08:00,,0818.4,5.00,0.00,24.9,24.0,00.0,34.0,26.6,14.5,0000.0,0002.91,0001.48,0001.32
2022-03-30 06:09:00,,0818.4,5.00,0.00,24.9,23.9,00.0,34.0,26.6,14.4,0000.0,0003.86,0001.52,0001.36
2022-03-30 06:10:00,,0818.4,4.99,0.00,24.9,23.9,00.0,34.0,26.6,14.4,0000.0,0003.89,0001.56,0001.41
2022-03-30 06:11:00,,0818.4,5.00,0.00,24.9,23.9,00.0,34.0,26.6,14.4,0000.0,0003.95,0001.60,0001.45
2022-03-30 06:12:00,,0818.3,5.00,0.00,24.8,23.9,00.0,34.0,26.6,14.5,0000.0,0003.99,0001.60,0001.46
2022-03-30 06:13:00,,0818.3,5.00,0.00,24.9,23.9,00.0,34.0,26.6,14.5,0000.0,0004.01,0001.60,0001.47
2022-03-30 06:14:00,,0818.3,4.99,0.00,24.9,23.9,00.0,34.0,26.6,14.5,0000.0,0004.04,0001.62,0001.48
2022-03-30 06:15:00,,0818.3,5.00,0.00,24.9,23.9,00.0,33.9,26.6,14.5,0000.0,0003.98,0001.61,0001.49
2022-03-30 06:16:00,,0818.3,5.00,0.00,24.8,23.9,00.0,33.9,26.6,14.5,0000.0,0003.95,0001.61,0001.50
2022-03-30 06:17:00,,0818.3,5.00,0.00,24.8,23.9,00.0,33.9,26.6,14.5,0000.0,0003.87,0001.62,0001.50
2022-03-30 06:18:00,,0818.4,5.01,0.00,24.8,23.9,00.0,33.9,26.6,14.4,0000.0,0003.18,0001.65,0001.51
2022-03-30 06:19:00,,0818.4,5.00,0.00,24.8,23.9,00.0,33.9,26.6,14.4,0000.0,0004.08,0001.68,0001.51
2022-03-30 06:20:00,,0818.4,4.99,0.00,24.8,23.9,00.0,33.9,26.6,14.4,0000.0,0003.84,0001.70,0001.51
2022-03-30 06:21:00,,0818.4,5.00,0.00,24.8,23.9,00.0,33.9,26.5,14.4,0000.0,0003.83,0001.68,0001.48
2022-03-30 06:22:00,,0818.4,5.00,0.00,24.8,23.9,00.0,33.9,26.6,14.4,0000.0,0003.83,0001.67,0001.47
2022-03-30 06:23:00,,0818.4,5.00,0.00,24.8,23.8,00.0,33.9,26.6,14.4,0000.0,0003.73,0001.66,0001.47
2022-03-30 06:24:00,,0818.4,5.00,0.00,24.8,23.9,00.0,33.9,26.6,14.4,0000.0,0003.67,0001.65,0001.48
2022-03-30 06:25:00,,0818.5,5.00,0.00,24.8,23.9,00.0,33.8,26.6,14.3,0000.0,0003.66,0001.66,0001.50
2022-03-30 06:26:00,,0818.5,4.99,0.00,24.8,23.9,00.0,33.8,26.6,14.3,0000.0,0003.71,0001.69,0001.51
2022-03-30 06:27:00,,0818.5,5.00,0.00,24.8,23.9,00.0,33.8,26.5,14.2,0000.0,0003.74,0001.72,0001.53
2022-03-30 06:28:00,,0818.5,5.00,0.00,24.8,23.8,00.0,33.8,26.5,14.2,0000.0,0003.90,0001.73,0001.55
2022-03-30 06:29:00,,0818.6,5.01,0.00,24.7,23.8,00.0,33.8,26.5,14.1,0000.0,0004.00,0001.72,0001.57
2022-03-30 06:30:00,,0818.6,5.00,0.00,24.7,23.8,00.0,33.8,26.5,14.1,0000.0,0003.51,0001.70,0001.57
2022-03-30 06:31:00,,0818.6,5.00,0.00,24.7,23.8,00.0,33.8,26.5,14.1,0000.0,0002.23,0001.69,0001.58
2022-03-30 06:32:00,,0818.7,5.00,0.00,24.7,23.8,00.0,33.8,26.5,14.0,0000.0,0002.44,0001.72,0001.59
2022-03-30 06:33:00,,0818.8,5.00,0.00,24.7,23.8,00.0,33.8,26.4,13.9,0000.0,0002.48,0001.73,0001.60
2022-03-30 06:34:00,,0818.7,5.00,0.00,24.7,23.7,00.0,33.8,26.4,13.9,0000.0,0002.52,0001.74,0001.61
2022-03-30 06:35:00,,0818.8,5.00,0.00,24.7,23.7,00.0,33.8,26.3,13.9,0000.0,0002.61,0001.78,0001.61
2022-03-30 06:36:00,,0818.8,5.01,0.00,24.6,23.7,00.0,33.8,26.4,13.9,0000.0,0002.64,0001.78,0001.61
2022-03-30 06:37:00,,0818.8,5.00,0.00,24.6,23.7,00.0,33.7,26.3,13.9,0000.0,0002.62,0001.76,0001.59
2022-03-30 06:38:00,,0818.8,5.00,0.00,24.6,23.7,00.0,33.7,26.4,13.9,0000.0,0002.61,0001.73,0001.57
2022-03-30 06:39:00,,0818.7,5.00,0.00,24.6,23.7,00.0,33.7,26.4,13.8,0000.0,0002.60,0001.73,0001.56
2022-03-30 06:40:00,,0818.8,5.00,0.00,24.6,23.7,00.0,33.7,26.4,13.8,0000.0,0002.40,0001.72,0001.55
2022-03-30 06:41:00,,0818.8,5.00,0.00,24.6,23.6,00.0,33.7,26.3,13.7,0000.0,0002.40,0001.72,0001.54
2022-03-30 06:42:00,,0818.7,4.99,0.00,24.6,23.6,00.0,33.7,26.3,13.7,0000.0,0002.41,0001.70,0001.52
2022-03-30 06:43:00,,0818.8,5.00,0.00,24.6,23.6,00.0,33.7,26.3,13.6,0000.0,0002.23,0001.68,0001.51
2022-03-30 06:44:00,,0818.7,5.01,0.00,24.6,23.6,00.0,33.7,26.3,13.6,0000.0,0002.16,0001.65,0001.49
2022-03-30 06:45:00,,0818.7,5.00,0.00,24.5,23.6,00.0,33.7,26.3,13.6,0000.0,0002.14,0001.64,0001.49
2022-03-30 06:46:00,,0818.7,5.00,0.00,24.5,23.6,00.0,33.6,26.3,13.5,0000.0,0002.07,0001.61,0001.48
2022-03-30 06:47:00,,0818.7,4.99,0.00,24.5,23.6,00.0,33.6,26.3,13.4,0000.0,0002.06,0001.62,0001.47
2022-03-30 06:48:00,,0818.8,4.99,0.00,24.5,23.6,00.0,33.6,26.3,13.4,0000.0,0002.04,0001.61,0001.47
2022-03-30 06:49:00,,0818.8,5.00,0.00,24.5,23.6,00.0,33.6,26.2,13.4,0000.0,0002.06,0001.64,0001.46
2022-03-30 06:50:00,,0818.8,5.00,0.00,24.5,23.5,00.0,33.6,26.2,13.4,0000.0,0001.97,0001.62,0001.45
2022-03-30 06:51:00,,0818.8,5.00,0.00,24.5,23.5,00.0,33.6,26.2,13.4,0000.0,0001.95,0001.61,0001.44
2022-03-30 06:52:00,,0818.8,5.00,0.00,24.4,23.5,00.0,33.6,26.2,13.4,0000.0,0001.94,0001.60,0001.42
2022-03-30 06:53:00,,0818.8,5.00,0.00,24.4,23.5,00.0,33.6,26.2,13.5,0000.0,0001.92,0001.60,0001.41
2022-03-30 06:54:00,,0818.8,5.00,0.00,24.4,23.5,00.0,33.5,26.2,13.5,0000.0,0002.05,0001.61,0001.40
2022-03-30 06:55:00,,0818.8,5.00,0.00,24.4,23.5,00.0,33.5,26.1,13.5,0000.0,0002.09,0001.62,0001.39
2022-03-30 06:56:00,,0818.8,5.02,0.00,24.4,23.4,00.0,33.5,26.1,13.5,0000.0,0002.17,0001.62,0001.38
2022-03-30 06:57:00,,0818.8,5.00,0.00,24.4,23.4,00.0,33.5,26.1,13.6,0000.0,0002.23,0001.61,0001.36
2022-03-30 06:58:00,,0818.8,5.00,0.00,24.4,23.4,00.0,33.5,26.1,13.6,0000.0,0002.19,0001.57,0001.34
2022-03-30 06:59:00,,0818.7,5.00,0.00,24.4,23.4,00.0,33.5,26.1,13.6,0000.0,0002.48,0001.57,0001.32
